Printer-friendly version
Follow the MPC on Twitter Follow the MPC on Facebook The MPC blog
Minor Planet Center

MPEC 2010-P03 : 2010 OL100

The following Minor Planet Electronic Circular may be linked-to from your own Web pages, but must not otherwise be redistributed electronically.

A form allowing access to any MPEC is at the bottom of this page.


Read MPEC 2010-P02 Read MPEC 2010-P04


M.P.E.C. 2010-P03                                Issued 2010 Aug. 2, 00:36 UT

     The Minor Planet Electronic Circulars contain information on unusual
         minor planets and routine data on comets.  They are published
   on behalf of Commission 20 of the International Astronomical Union by the
          Minor Planet Center, Smithsonian Astrophysical Observatory,
                          Cambridge, MA 02138, U.S.A.

             Prepared using the Tamkin Foundation Computer Network

                              MPC@CFA.HARVARD.EDU
       URL http://www.minorplanetcenter.org/iau/mpc.html  ISSN 1523-6714

                                  2010 OL100

Observations:
     K10OA0L* S2010 07 28.37585 16 23 21.70 +50 45 14.4          21   R EP003C51
     K10OA0L  s2010 07 28.37585 1 - 3685.0364 - 1505.9179 + 5634.4777   EP003C51
     K10OA0L  S2010 07 28.44194 16 23 04.19 +50 47 47.3                 EP003C51
     K10OA0L  s2010 07 28.44194 1 - 3710.3909 - 1531.5863 + 5611.0490   EP003C51
     K10OA0L  S2010 07 28.50815 16 22 46.52 +50 50 21.4                 EP003C51
     K10OA0L  s2010 07 28.50815 1 - 3681.8224 - 1514.7437 + 5634.4695   EP003C51
     K10OA0L  S2010 07 28.64046 16 22 11.13 +50 55 29.1                 EP003C51
     K10OA0L  s2010 07 28.64046 1 - 3678.6223 - 1523.0362 + 5634.0964   EP003C51
     K10OA0L  S2010 07 28.70655 16 21 53.47 +50 58 01.5                 EP003C51
     K10OA0L  s2010 07 28.70655 1 - 3703.7061 - 1548.3212 + 5610.7008   EP003C51
     K10OA0L  S2010 07 28.77276 16 21 35.57 +51 00 35.2                 EP003C51
     K10OA0L  s2010 07 28.77276 1 - 3674.3875 - 1530.6617 + 5634.6940   EP003C51
     K10OA0L  S2010 07 28.83885 16 21 17.85 +51 03 07.5                 EP003C51
     K10OA0L  s2010 07 28.83885 1 - 3699.1546 - 1556.0315 + 5611.5379   EP003C51
     K10OA0L KC2010 08 01.09388416 05 57.82 +53 05 37.5          20.1 V EP003H21
     K10OA0L KC2010 08 01.10758816 05 53.59 +53 06 07.3          20.3 V EP003H21
     K10OA0L KC2010 08 01.12145316 05 49.35 +53 06 37.5          20.4 V EP003H21
     K10OA0L KC2010 08 01.13518816 05 45.15 +53 07 07.1          20.4 V EP003H21
     K10OA0L KC2010 08 01.15189916 05 40.01 +53 07 42.9          20.1 V EP003H21
     K10OA0L KC2010 08 01.90543 16 01 53.78 +53 35 03.5                 EP003118
     K10OA0L KC2010 08 01.91701 16 01 50.12 +53 35 28.6                 EP003118

Observer details:
118 Modra.  Observer S. Gajdos.  0.6-m f/5.5 reflector + CCD.
C51 WISE.  Measurers A. K. Mainzer, E. L. Wright, J. M. Bauer, T. Grav,
    J. W. Dailey, J. R. Masiero, R. M. Cutri, R. S. McMillan, R. G. Walker.
    (http://wise.ssl.berkeley.edu/mission_sci.html).
H21 Astronomical Research Observatory, Westfield.  Observer R. Holmes.
    Measurers R. Holmes, H. Devore.  0.61-m f/4.5 astrograph + CCD.

Orbital elements:
2010 OL100                                               Earth MOID = 0.1284 AU
Epoch 2010 July 23.0 TT = JDT 2455400.5                 MPC
M 343.23977              (2000.0)            P               Q
n   0.28557282     Peri.  147.93897     +0.94227205     -0.19479689
a   2.2838003      Node   225.96026     +0.16563403     +0.97804308
e   0.6571660      Incl.   22.26387     +0.29101332     +0.07406688
P   3.45           H   19.5           G   0.15           U   9
Residuals in seconds of arc
100728 C51  0.7-  0.2+    100728 C51  0.4-  0.5+    100801 H21  0.1+  0.0
100728 C51  0.1+  0.7-    100728 C51  0.2+  0.1-    100801 H21  0.2-  0.2-
100728 C51  0.1+  0.2-    100801 H21  0.1+  0.0     100801 118  0.4+  0.3-
100728 C51  0.1+  0.6+    100801 H21  0.1-  0.0     100801 118  0.3-  0.4+
100728 C51  0.6+  0.2-    100801 H21  0.0   0.1+

Ephemeris:
2010 OL100               a,e,i = 2.28, 0.66, 22                  q = 0.7830
Date    TT    R. A. (2000) Decl.     Delta      r     Elong.  Phase     V
2010 08 02    16 01.44   +53 38.5    0.418    1.071    86.1    71.0    20.2
2010 08 12    15 00.58   +59 02.8    0.398    0.980    73.8    83.2    20.4
2010 08 22    13 30.75   +62 06.4    0.380    0.900    62.3    95.8    20.6
2010 09 01    11 40.13   +59 28.3    0.371    0.836    52.3   107.2    21.0
2010 09 11    10 16.82   +49 35.6    0.381    0.795    46.6   113.1    21.3
2010 09 21    09 36.18   +36 08.6    0.417    0.783    47.2   109.8    21.2
2010 10 01    09 22.60   +23 12.5    0.475    0.803    52.2   100.0    21.0
2010 10 11    09 22.42   +12 23.1    0.545    0.850    58.4    88.6    20.9
2010 10 21    09 27.77   +03 36.5    0.614    0.920    64.7    78.2    21.0
2010 10 31    09 34.41   -03 36.7    0.675    1.003    71.0    69.4    21.1
2010 11 10    09 39.86   -09 41.6    0.727    1.096    77.6    62.0    21.2
2010 11 20    09 42.55   -14 53.2    0.767    1.193    84.6    55.6    21.3
2010 11 30    09 41.44   -19 18.7    0.799    1.292    92.1    49.7    21.4
2010 12 10    09 35.73   -22 57.4    0.824    1.391   100.1    44.2    21.5
2010 12 20    09 25.10   -25 42.2    0.848    1.489   108.5    38.8    21.6
2010 12 30    09 10.01   -27 23.0    0.874    1.585   117.1    33.5    21.6
2011 01 09    08 51.81   -27 50.0    0.908    1.679   125.2    28.6    21.7
2011 01 19    08 32.84   -27 01.5    0.956    1.771   131.9    24.4    21.8
2011 01 29    08 15.58   -25 08.0    1.020    1.861   136.2    21.5    21.9
2011 02 08    08 01.85   -22 29.0    1.105    1.947   137.2    20.1    22.2
2011 02 18    07 52.56   -19 27.9    1.209    2.032   135.0    20.1    22.5
2011 02 28    07 47.68   -16 24.6    1.333    2.113   130.3    20.9    22.8
2011 03 10    07 46.73   -13 32.4    1.473    2.192   124.3    22.0    23.1

Carl W. Hergenrother         (C) Copyright 2010 MPC           M.P.E.C. 2010-P03

Read MPEC 2010-P02 Read MPEC 2010-P04


MPEC number:

Enter an MPEC number in one of the following forms:

  • 1997-B01 (the full form)
  • J97B01 (the packed version of the full form)
  • B01 (the abbreviated form)

Valid HTML 4.01!